This demonstration page uses our WeatherBlox Daily Observations layout. Learn more.

Left ArrowRight Arrow

30.21309, -93.2044

Hourly Observations for October 25, 2015

Temp ( °F °C ) Dew Point ( °F °C ) Humidity (%) Winds ( mph kmh ) Pressure ( in mb ) Visibility ( mi km ) Precip ( " mm )
12:15 am 00:15 Cloudy with Light Rain 72 22 71 21.5 97 97 E 12 19 29.91 1013 10 16 0.01 0.25
12:35 am 00:35 Cloudy with Light Rain 72 22 71 21.6 98 98 E 12 19 29.91 1013 10 16 0.01 0.25
12:55 am 00:55 Cloudy with Rain 72 22 71 21.5 97 97 E 12 19 29.91 1013 10 16 0.03 0.76
1:15 am 01:15 Cloudy with Light Rain 72 22 71 21.5 97 97 E 9 15 29.88 1012 10 16 0.01 0.25
1:35 am 01:35 Cloudy with Light Rain 71 21.8 70 21.3 97 97 E 12 19 29.91 1013 10 16 0.02 0.51
1:55 am 01:55 Cloudy with Light Rain 71 21.7 70 21.3 98 98 ENE 10 17 29.91 1013 10 16 0.03 0.76
2:15 am 02:15 Cloudy with Light Rain 71 21.7 70 21.2 97 97 E 12 19 29.88 1012 10 16 0.00 0.00
2:35 am 02:35 Cloudy with Light Rain 71 21.6 70 21.2 98 98 E 13 20 29.88 1012 7 11 0.02 0.51
2:55 am 02:55 Cloudy with Light Rain 71 21.6 70 21.2 98 98 ENE 10 17 29.88 1012 10 16 0.04 1.02
3:15 am 03:15 Cloudy with Light Rain 71 21.6 70 21.2 98 98 ENE 9 15 29.88 1012 10 16 0.02 0.51
3:35 am 03:35 Cloudy with Light Rain 71 21.6 70 21.2 98 98 ENE 10 17 29.88 1012 10 16 0.03 0.76
3:55 am 03:55 Cloudy with Light Rain 71 21.5 70 21 97 97 ENE 12 19 29.88 1012 10 16 0.04 1.02
4:15 am 04:15 Cloudy with Light Rain 70 21.2 69 20.8 98 98 ENE 9 15 29.85 1011 10 16 0.00 0.00
4:35 am 04:35 Cloudy with Light Rain 70 21.2 69 20.7 97 97 ENE 8 13 29.85 1011 10 16 0.02 0.51
4:55 am 04:55 Cloudy with Light Rain 70 21.1 69 20.7 98 98 ENE 9 15 29.85 1011 10 16 0.02 0.51
5:15 am 05:15 Cloudy with Light Rain 70 21.1 69 20.7 98 98 ENE 9 15 29.85 1011 10 16 0.01 0.25
6:00 am 06:00 Cloudy with Light Rain 70 21 70 21 100 100 ENE 8 13 29.88 1012 10 16 0.00 0.00
6:50 am 06:50 Cloudy with Rain 68 20 68 20 100 100 NE 12 19 29.88 1012 10 16 0.00 0.00
7:50 am 07:50 Cloudy with Rain 68 20 68 20 100 100 NE 12 19 29.88 1012 7 11 0.00 0.00
8:50 am 08:50 Cloudy with Rain 68 20 66 19 94 94 NE 14 22 29.85 1011 10 16 0.00 0.00
9:50 am 09:50 Cloudy with Light Rain 66 19 66 19 100 100 NE 15 24 29.83 1010 7 11 0.00 0.00
10:50 am 10:50 Cloudy with Rain 66 19 64 18 94 94 NNE 15 24 29.83 1010 7 11 0.00 0.00
11:50 am 11:50 Cloudy with Rain 64 18 64 18 100 100 NE 13 20 29.80 1009 7 11 0.00 0.00
12:20 pm 12:20 Cloudy with Heavy Rain 64 18 64 18 100 100 NE 15 24 29.80 1009 2 3 0.00 0.00
1:55 pm 13:55 Cloudy with Light Rain 64 18 64 18 100 100 NE 17 28 29.71 1006 7 11 0.00 0.00
2:50 pm 14:50 Cloudy with Heavy Rain 64 18 64 18 100 100 NE 14 22 29.68 1005 3 5 0.00 0.00
3:50 pm 15:50 Cloudy with Rain 64 18 64 18 100 100 NE 16 26 29.65 1004 3 5 0.00 0.00
4:50 pm 16:50 Cloudy with Rain 64 18 64 18 100 100 NNE 17 28 29.65 1004 3 5 0.00 0.00
5:50 pm 17:50 Cloudy with Rain 64 18 63 17 94 94 N 14 22 29.65 1004 3 5 0.00 0.00
6:50 pm 18:50 Cloudy with Rain 64 18 63 17 94 94 NNW 10 17 29.65 1004 3 5 0.00 0.00
7:50 pm 19:50 Cloudy with Rain 64 18 63 17 94 94 NNW 17 28 29.65 1004 3 5 0.00 0.00
8:50 pm 20:50 Cloudy with Rain 63 17 63 17 100 100 NNW 17 28 29.65 1004 3 5 0.00 0.00
9:50 pm 21:50 Cloudy with Rain 63 17 63 17 100 100 N 17 28 29.62 1003 3 5 0.00 0.00
10:15 pm 22:15 Cloudy with Mist and Fog 63 17.2 62 16.9 98 98 N 18 30 29.62 1003 5 8 0.00 0.00
10:35 pm 22:35 Cloudy with Mist and Fog 63 17.4 63 17 98 98 N 14 22 29.62 1003 5 8 0.00 0.00
10:55 pm 22:55 Cloudy with Rain 64 17.5 63 17.2 98 98 N 15 24 29.59 1002 4 6 0.00 0.00
11:15 pm 23:15 Cloudy with Drizzle 64 18 64 17.6 98 98 N 17 28 29.59 1002 7 11 0.00 0.00
11:35 pm 23:35 Cloudy 65 18.4 65 18.1 98 98 N 12 19 29.56 1001 7 11 0.00 0.00
11:55 pm 23:55 Cloudy with Light Rain 66 18.7 65 18.3 98 98 N 13 20 29.56 1001 5 8 0.00 0.00

Powered by AerisWeather